Year,Month,Day,Hour,Minute,Value (Times are PST for temperature in C)
2021,06,26,00,00,24.70
2021,06,26,00,01,24.70
2021,06,26,00,02,24.70
2021,06,26,00,03,24.60
2021,06,26,00,04,24.60
2021,06,26,00,05,24.50
2021,06,26,00,06,24.50
2021,06,26,00,07,24.50
2021,06,26,00,08,24.40
2021,06,26,00,09,24.40
2021,06,26,00,10,24.40
2021,06,26,00,11,24.40
2021,06,26,00,12,24.40
2021,06,26,00,13,24.40
2021,06,26,00,14,24.40
2021,06,26,00,15,24.20
2021,06,26,00,16,24.10
2021,06,26,00,17,24.10
2021,06,26,00,18,24.10
2021,06,26,00,19,24.00
2021,06,26,00,20,24.00
2021,06,26,00,21,24.00
2021,06,26,00,22,23.90
2021,06,26,00,23,23.90
2021,06,26,00,24,23.90
2021,06,26,00,25,23.80
2021,06,26,00,26,23.80
2021,06,26,00,27,23.80
2021,06,26,00,28,23.70
2021,06,26,00,29,23.70
2021,06,26,00,30,23.70
2021,06,26,00,31,23.60
2021,06,26,00,32,23.60
2021,06,26,00,33,23.60
2021,06,26,00,34,23.60
2021,06,26,00,35,23.50
2021,06,26,00,36,23.50
2021,06,26,00,37,23.50
2021,06,26,00,38,23.40
2021,06,26,00,39,23.40
2021,06,26,00,40,23.40
2021,06,26,00,41,23.40
2021,06,26,00,42,23.30
2021,06,26,00,43,23.30
2021,06,26,00,44,23.30
2021,06,26,00,45,23.20
2021,06,26,00,46,23.20
2021,06,26,00,47,23.10
2021,06,26,00,48,23.10
2021,06,26,00,49,23.10
2021,06,26,00,50,23.10
2021,06,26,00,51,23.10
2021,06,26,00,52,23.00
2021,06,26,00,53,23.00
2021,06,26,00,54,23.00
2021,06,26,00,55,22.90
2021,06,26,00,56,22.90
2021,06,26,00,57,22.90
2021,06,26,00,58,22.90
2021,06,26,00,59,22.90
2021,06,26,01,00,22.90
2021,06,26,01,01,22.90
2021,06,26,01,02,22.90
2021,06,26,01,03,22.80
2021,06,26,01,04,22.80
2021,06,26,01,05,22.80
2021,06,26,01,06,22.80
2021,06,26,01,07,22.70
2021,06,26,01,08,22.70
2021,06,26,01,09,22.70
2021,06,26,01,10,22.70
2021,06,26,01,11,22.60
2021,06,26,01,12,22.60
2021,06,26,01,13,22.60
2021,06,26,01,14,22.50
2021,06,26,01,15,22.50
2021,06,26,01,16,22.40
2021,06,26,01,17,22.40
2021,06,26,01,18,22.40
2021,06,26,01,19,22.30
2021,06,26,01,20,22.30
2021,06,26,01,21,22.30
2021,06,26,01,22,22.30
2021,06,26,01,23,22.30
2021,06,26,01,24,22.30
2021,06,26,01,25,22.20
2021,06,26,01,26,22.20
2021,06,26,01,27,22.20
2021,06,26,01,28,22.20
2021,06,26,01,29,22.20
2021,06,26,01,30,22.20
2021,06,26,01,31,22.20
2021,06,26,01,32,22.20
2021,06,26,01,33,22.20
2021,06,26,01,34,22.10
2021,06,26,01,35,22.10
2021,06,26,01,36,22.00
2021,06,26,01,37,22.00
2021,06,26,01,38,21.90
2021,06,26,01,39,21.90
2021,06,26,01,40,21.90
2021,06,26,01,41,21.90
2021,06,26,01,42,21.90
2021,06,26,01,43,21.90
2021,06,26,01,44,21.90
2021,06,26,01,45,21.90
2021,06,26,01,46,21.90
2021,06,26,01,47,21.90
2021,06,26,01,48,21.90
2021,06,26,01,49,21.90
2021,06,26,01,50,22.00
2021,06,26,01,51,22.00
2021,06,26,01,52,22.00
2021,06,26,01,53,22.00
2021,06,26,01,54,22.00
2021,06,26,01,55,22.00
2021,06,26,01,56,22.00
2021,06,26,01,57,21.90
2021,06,26,01,58,21.90
2021,06,26,01,59,21.90
2021,06,26,02,00,21.90
2021,06,26,02,01,21.90
2021,06,26,02,02,21.80
2021,06,26,02,03,21.80
2021,06,26,02,04,21.80
2021,06,26,02,05,21.80
2021,06,26,02,06,21.80
2021,06,26,02,07,21.80
2021,06,26,02,08,21.80
2021,06,26,02,09,21.80
2021,06,26,02,10,21.80
2021,06,26,02,11,21.70
2021,06,26,02,12,21.70
2021,06,26,02,13,21.70
2021,06,26,02,14,21.70
2021,06,26,02,15,21.70
2021,06,26,02,16,21.70
2021,06,26,02,17,21.60
2021,06,26,02,18,21.60
2021,06,26,02,19,21.60
2021,06,26,02,20,21.60
2021,06,26,02,21,21.60
2021,06,26,02,22,21.60
2021,06,26,02,23,21.60
2021,06,26,02,24,21.50
2021,06,26,02,25,21.50
2021,06,26,02,26,21.50
2021,06,26,02,27,21.40
2021,06,26,02,28,21.40
2021,06,26,02,29,21.40
2021,06,26,02,30,21.30
2021,06,26,02,31,21.30
2021,06,26,02,32,21.30
2021,06,26,02,33,21.20
2021,06,26,02,34,21.20
2021,06,26,02,35,21.20
2021,06,26,02,36,21.10
2021,06,26,02,37,21.10
2021,06,26,02,38,21.10
2021,06,26,02,39,21.10
2021,06,26,02,40,21.00
2021,06,26,02,41,21.00
2021,06,26,02,42,21.00
2021,06,26,02,43,21.00
2021,06,26,02,44,20.90
2021,06,26,02,45,20.90
2021,06,26,02,46,20.90
2021,06,26,02,47,20.90
2021,06,26,02,48,20.90
2021,06,26,02,49,20.90
2021,06,26,02,50,20.90
2021,06,26,02,51,20.90
2021,06,26,02,52,20.90
2021,06,26,02,53,20.90
2021,06,26,02,54,20.90
2021,06,26,02,55,20.80
2021,06,26,02,56,20.80
2021,06,26,02,57,20.80
2021,06,26,02,58,20.80
2021,06,26,02,59,20.80
2021,06,26,03,00,20.80
2021,06,26,03,01,20.80
2021,06,26,03,02,20.80
2021,06,26,03,03,20.80
2021,06,26,03,04,20.80
2021,06,26,03,05,20.80
2021,06,26,03,06,20.80
2021,06,26,03,07,20.70
2021,06,26,03,08,20.70
2021,06,26,03,09,20.70
2021,06,26,03,10,20.70
2021,06,26,03,11,20.70
2021,06,26,03,12,20.60
2021,06,26,03,13,20.60
2021,06,26,03,14,20.60
2021,06,26,03,15,20.60
2021,06,26,03,16,20.60
2021,06,26,03,17,20.60
2021,06,26,03,18,20.60
2021,06,26,03,19,20.60
2021,06,26,03,20,20.50
2021,06,26,03,21,20.50
2021,06,26,03,22,20.50
2021,06,26,03,23,20.50
2021,06,26,03,24,20.40
2021,06,26,03,25,20.40
2021,06,26,03,26,20.40
2021,06,26,03,27,20.40
2021,06,26,03,28,20.30
2021,06,26,03,29,20.30
2021,06,26,03,30,20.30
2021,06,26,03,31,20.30
2021,06,26,03,32,20.30
2021,06,26,03,33,20.30
2021,06,26,03,34,20.30
2021,06,26,03,35,20.30
2021,06,26,03,36,20.30
2021,06,26,03,37,20.30
2021,06,26,03,38,20.30
2021,06,26,03,39,20.30
2021,06,26,03,40,20.30
2021,06,26,03,41,20.30
2021,06,26,03,42,20.20
2021,06,26,03,43,20.20
2021,06,26,03,44,20.20
2021,06,26,03,45,20.20
2021,06,26,03,46,20.20
2021,06,26,03,47,20.20
2021,06,26,03,48,20.10
2021,06,26,03,49,20.10
2021,06,26,03,50,20.10
2021,06,26,03,51,20.10
2021,06,26,03,52,20.10
2021,06,26,03,53,20.10
2021,06,26,03,54,20.10
2021,06,26,03,55,20.00
2021,06,26,03,56,20.00
2021,06,26,03,57,20.00
2021,06,26,03,58,20.10
2021,06,26,03,59,20.10
2021,06,26,04,00,20.00
2021,06,26,04,01,20.10
2021,06,26,04,02,20.00
2021,06,26,04,03,20.00
2021,06,26,04,04,20.00
2021,06,26,04,05,20.00
2021,06,26,04,06,20.00
2021,06,26,04,07,20.00
2021,06,26,04,08,20.00
2021,06,26,04,09,20.00
2021,06,26,04,10,19.90
2021,06,26,04,11,19.90
2021,06,26,04,12,19.90
2021,06,26,04,13,19.90
2021,06,26,04,14,19.90
2021,06,26,04,15,19.90
2021,06,26,04,16,19.90
2021,06,26,04,17,19.80
2021,06,26,04,18,19.80
2021,06,26,04,19,19.80
2021,06,26,04,20,19.80
2021,06,26,04,21,19.80
2021,06,26,04,22,19.80
2021,06,26,04,23,19.80
2021,06,26,04,24,19.80
2021,06,26,04,25,19.70
2021,06,26,04,26,19.70
2021,06,26,04,27,19.70
2021,06,26,04,28,19.70
2021,06,26,04,29,19.70
2021,06,26,04,30,19.70
2021,06,26,04,31,19.70
2021,06,26,04,32,19.70
2021,06,26,04,33,19.70
2021,06,26,04,34,19.70
2021,06,26,04,35,19.70
2021,06,26,04,36,19.70
2021,06,26,04,37,19.60
2021,06,26,04,38,19.60
2021,06,26,04,39,19.60
2021,06,26,04,40,19.60
2021,06,26,04,41,19.60
2021,06,26,04,42,19.60
2021,06,26,04,43,19.60
2021,06,26,04,44,19.60
2021,06,26,04,45,19.60
2021,06,26,04,46,19.60
2021,06,26,04,47,19.60
2021,06,26,04,48,19.60
2021,06,26,04,49,19.60
2021,06,26,04,50,19.60
2021,06,26,04,51,19.60
2021,06,26,04,52,19.60
2021,06,26,04,53,19.60
2021,06,26,04,54,19.60
2021,06,26,04,55,19.60
2021,06,26,04,56,19.60
2021,06,26,04,57,19.60
2021,06,26,04,58,19.60
2021,06,26,04,59,19.60
2021,06,26,05,00,19.50
2021,06,26,05,01,19.50
2021,06,26,05,02,19.50
2021,06,26,05,03,19.40
2021,06,26,05,04,19.40
2021,06,26,05,05,19.40
2021,06,26,05,06,19.40
2021,06,26,05,07,19.40
2021,06,26,05,08,19.40
2021,06,26,05,09,19.40
2021,06,26,05,10,19.40
2021,06,26,05,11,19.40
2021,06,26,05,12,19.30
2021,06,26,05,13,19.30
2021,06,26,05,14,19.30
2021,06,26,05,15,19.30
2021,06,26,05,16,19.30
2021,06,26,05,17,19.30
2021,06,26,05,18,19.20
2021,06,26,05,19,19.20
2021,06,26,05,20,19.20
2021,06,26,05,21,19.20
2021,06,26,05,22,19.20
2021,06,26,05,23,19.20
2021,06,26,05,24,19.30
2021,06,26,05,25,19.30
2021,06,26,05,26,19.30
2021,06,26,05,27,19.30
2021,06,26,05,28,19.30
2021,06,26,05,29,19.30
2021,06,26,05,30,19.30
2021,06,26,05,31,19.30
2021,06,26,05,32,19.30
2021,06,26,05,33,19.30
2021,06,26,05,34,19.30
2021,06,26,05,35,19.30
2021,06,26,05,36,19.30
2021,06,26,05,37,19.30
2021,06,26,05,38,19.30
2021,06,26,05,39,19.30
2021,06,26,05,40,19.30
2021,06,26,05,41,19.20
2021,06,26,05,42,19.30
2021,06,26,05,43,19.30
2021,06,26,05,44,19.30
2021,06,26,05,45,19.30
2021,06,26,05,46,19.30
2021,06,26,05,47,19.30
2021,06,26,05,48,19.30
2021,06,26,05,49,19.20
2021,06,26,05,50,19.20
2021,06,26,05,51,19.20
2021,06,26,05,52,19.10
2021,06,26,05,53,19.10
2021,06,26,05,54,19.10
2021,06,26,05,55,19.10
2021,06,26,05,56,19.10
2021,06,26,05,57,19.00
2021,06,26,05,58,19.00
2021,06,26,05,59,19.00
2021,06,26,06,00,19.00
2021,06,26,06,01,19.00
2021,06,26,06,02,19.00
2021,06,26,06,03,19.00
2021,06,26,06,04,19.00
2021,06,26,06,05,19.00
2021,06,26,06,06,19.00
2021,06,26,06,07,19.00
2021,06,26,06,08,19.00
2021,06,26,06,09,19.00
2021,06,26,12,56,37.30
2021,06,26,12,57,37.20
2021,06,26,12,58,37.10
2021,06,26,12,59,37.10
2021,06,26,13,00,37.10
2021,06,26,13,01,37.10
2021,06,26,13,02,37.20
2021,06,26,13,03,37.20
2021,06,26,13,04,37.10
2021,06,26,13,05,37.10
2021,06,26,13,06,37.10
2021,06,26,13,07,36.90
2021,06,26,13,08,36.80
2021,06,26,13,09,36.70
2021,06,26,13,10,36.60
2021,06,26,13,11,36.50
2021,06,26,13,12,36.50
2021,06,26,13,13,36.50
2021,06,26,13,14,36.40
2021,06,26,13,15,36.40
2021,06,26,13,16,36.40
2021,06,26,13,17,36.40
2021,06,26,13,18,36.30
2021,06,26,13,19,36.30
2021,06,26,13,20,36.30
2021,06,26,13,21,36.30
2021,06,26,13,22,36.30
2021,06,26,13,23,36.30
2021,06,26,13,24,36.30
2021,06,26,13,25,36.30
2021,06,26,13,26,36.30
2021,06,26,13,27,36.20
2021,06,26,13,28,36.20
2021,06,26,13,29,36.20
2021,06,26,13,30,36.30
2021,06,26,13,31,36.30
2021,06,26,13,32,36.40
2021,06,26,13,33,36.40
2021,06,26,13,34,36.50
2021,06,26,13,35,36.60
2021,06,26,13,36,36.60
2021,06,26,13,37,36.60
2021,06,26,13,38,36.60
2021,06,26,13,39,36.60
2021,06,26,13,40,36.70
2021,06,26,13,41,36.70
2021,06,26,13,42,36.70
2021,06,26,13,43,36.80
2021,06,26,13,44,36.90
2021,06,26,13,45,36.90
2021,06,26,13,46,36.90
2021,06,26,13,47,36.90
2021,06,26,13,48,36.90
2021,06,26,13,49,36.90
2021,06,26,13,50,36.80
2021,06,26,13,51,36.80
2021,06,26,13,52,36.80
2021,06,26,13,53,36.80
2021,06,26,13,54,36.70
2021,06,26,13,55,36.70
2021,06,26,13,56,36.70
2021,06,26,13,57,36.70
2021,06,26,13,58,36.60
2021,06,26,13,59,36.70
2021,06,26,14,00,36.70
2021,06,26,14,01,36.70
2021,06,26,14,02,36.70
2021,06,26,14,03,36.70
2021,06,26,14,04,36.80
2021,06,26,14,05,36.80
2021,06,26,14,06,36.80
2021,06,26,14,07,36.70
2021,06,26,14,08,36.80
2021,06,26,14,09,36.70
2021,06,26,14,10,36.70
2021,06,26,14,11,36.70
2021,06,26,14,12,36.80
2021,06,26,14,13,36.80
2021,06,26,14,14,36.90
2021,06,26,14,15,36.90
2021,06,26,14,16,36.90
2021,06,26,14,17,36.90
2021,06,26,14,18,36.90
2021,06,26,14,19,36.80
2021,06,26,14,20,36.80
2021,06,26,14,21,36.90
2021,06,26,14,22,36.90
2021,06,26,14,23,36.90
2021,06,26,14,24,36.90
2021,06,26,14,25,36.80
2021,06,26,14,26,36.70
2021,06,26,14,27,36.70
2021,06,26,14,28,36.70
2021,06,26,14,29,36.70
2021,06,26,14,30,36.70
2021,06,26,14,31,36.60
2021,06,26,14,32,36.60
2021,06,26,14,33,36.60
2021,06,26,14,34,36.60
2021,06,26,14,35,36.60
2021,06,26,14,36,36.60
2021,06,26,14,37,36.60
2021,06,26,14,38,36.60
2021,06,26,14,39,36.60
2021,06,26,14,40,36.70
2021,06,26,14,41,36.70
2021,06,26,14,42,36.70
2021,06,26,14,43,36.70
2021,06,26,14,44,36.80
2021,06,26,14,45,36.80
2021,06,26,14,46,36.80
2021,06,26,14,47,36.80
2021,06,26,14,48,36.80
2021,06,26,14,49,36.80
2021,06,26,14,50,36.80
2021,06,26,14,51,36.90
2021,06,26,14,52,36.90
2021,06,26,14,53,36.90
2021,06,26,14,54,36.90
2021,06,26,14,55,37.00
2021,06,26,14,56,37.00
2021,06,26,14,57,37.00
2021,06,26,14,58,37.10
2021,06,26,14,59,37.00
2021,06,26,15,00,37.00
2021,06,26,15,01,36.90
2021,06,26,15,02,36.80
2021,06,26,15,03,36.70
2021,06,26,15,04,36.70
2021,06,26,15,05,36.70
2021,06,26,15,06,36.70
2021,06,26,15,07,36.70
2021,06,26,15,08,36.60
2021,06,26,15,09,36.60
2021,06,26,15,10,36.60
2021,06,26,15,11,36.60
2021,06,26,15,12,36.60
2021,06,26,15,13,36.70
2021,06,26,15,14,36.70
2021,06,26,15,15,36.60
2021,06,26,15,16,36.60
2021,06,26,15,17,36.60
2021,06,26,15,18,36.60
2021,06,26,15,19,36.60
2021,06,26,15,20,36.60
2021,06,26,15,21,36.60
2021,06,26,15,22,36.60
2021,06,26,15,23,36.60
2021,06,26,15,24,36.60
2021,06,26,15,25,36.60
2021,06,26,15,26,36.60
2021,06,26,15,27,36.60
2021,06,26,15,28,36.60
2021,06,26,15,29,36.70
2021,06,26,15,30,36.80
2021,06,26,15,31,36.80
2021,06,26,15,32,36.80
2021,06,26,15,33,36.80
2021,06,26,15,34,36.80
2021,06,26,15,35,36.80
2021,06,26,15,36,36.90
2021,06,26,15,37,36.90
2021,06,26,15,38,36.80
2021,06,26,15,39,36.80
2021,06,26,15,40,36.70
2021,06,26,15,41,36.80
2021,06,26,15,42,36.80
2021,06,26,15,43,36.80
2021,06,26,15,44,36.80
2021,06,26,15,45,36.70
2021,06,26,15,46,36.70
2021,06,26,15,47,36.70
2021,06,26,15,48,36.70
2021,06,26,15,49,36.70
2021,06,26,15,50,36.80
2021,06,26,15,51,36.80
2021,06,26,15,52,36.80
2021,06,26,15,53,36.70
2021,06,26,15,54,36.70
2021,06,26,15,55,36.70
2021,06,26,15,56,36.80
2021,06,26,15,57,36.80
2021,06,26,15,58,36.80
2021,06,26,15,59,36.80
2021,06,26,16,00,36.70
2021,06,26,16,01,36.70
2021,06,26,16,02,36.60
2021,06,26,16,03,36.60
2021,06,26,16,04,36.60
2021,06,26,16,05,36.60
2021,06,26,16,06,36.60
2021,06,26,16,07,36.60
2021,06,26,16,08,36.60
2021,06,26,16,09,36.60
2021,06,26,16,10,36.60
2021,06,26,16,11,36.60
2021,06,26,16,12,36.60
2021,06,26,16,13,36.70
2021,06,26,16,14,36.60
2021,06,26,16,15,36.60
2021,06,26,16,16,36.60
2021,06,26,16,17,36.70
2021,06,26,16,18,36.70
2021,06,26,16,19,36.70
2021,06,26,16,20,36.80
2021,06,26,16,21,36.80
2021,06,26,16,22,36.80
2021,06,26,16,23,36.90
2021,06,26,16,24,36.90
2021,06,26,16,25,37.00
2021,06,26,16,26,37.10
2021,06,26,16,27,37.10
2021,06,26,16,28,37.00
2021,06,26,16,29,37.00
2021,06,26,16,30,36.90
2021,06,26,16,31,36.90
2021,06,26,16,32,37.00
2021,06,26,16,33,37.00
2021,06,26,16,34,37.00
2021,06,26,16,35,37.00
2021,06,26,16,36,37.00
2021,06,26,16,37,37.00
2021,06,26,16,38,37.10
2021,06,26,16,39,37.10
2021,06,26,16,40,37.20
2021,06,26,16,41,37.20
2021,06,26,16,42,37.30
2021,06,26,16,43,37.30
2021,06,26,16,44,37.40
2021,06,26,16,45,37.40
2021,06,26,16,46,37.40
2021,06,26,16,47,37.30
2021,06,26,16,48,37.30
2021,06,26,16,49,37.20
2021,06,26,16,50,37.20
2021,06,26,16,51,37.20
2021,06,26,16,52,37.20
2021,06,26,16,53,37.20
2021,06,26,16,54,37.20
2021,06,26,16,55,37.20
2021,06,26,16,56,37.20
2021,06,26,16,57,37.20
2021,06,26,16,58,37.20
2021,06,26,16,59,37.20
2021,06,26,17,00,37.30
2021,06,26,17,01,37.30
2021,06,26,17,02,37.30
2021,06,26,17,03,37.30
2021,06,26,17,04,37.30
2021,06,26,17,05,37.30
2021,06,26,17,06,37.40
2021,06,26,17,07,37.40
2021,06,26,17,08,37.40
2021,06,26,17,09,37.40
2021,06,26,17,10,37.50
2021,06,26,17,11,37.50
2021,06,26,17,12,37.60
2021,06,26,17,13,37.60
2021,06,26,17,14,37.60
2021,06,26,17,15,37.60
2021,06,26,17,16,37.60
2021,06,26,17,17,37.60
2021,06,26,17,18,37.60
2021,06,26,17,19,37.60
2021,06,26,17,20,37.60
2021,06,26,17,21,37.60
2021,06,26,17,22,37.50
2021,06,26,17,23,37.50
2021,06,26,17,24,37.40
2021,06,26,17,25,37.40
2021,06,26,17,26,37.40
2021,06,26,17,27,37.30
2021,06,26,17,28,37.30
2021,06,26,17,29,37.30
2021,06,26,17,30,37.30
2021,06,26,17,31,37.30
2021,06,26,17,32,37.30
2021,06,26,17,33,37.30
2021,06,26,17,34,37.40
2021,06,26,17,35,37.40
2021,06,26,17,36,37.40
2021,06,26,17,37,37.40
2021,06,26,17,38,37.40
2021,06,26,17,39,37.40
2021,06,26,17,40,37.50
2021,06,26,17,41,37.50
2021,06,26,17,42,37.50
2021,06,26,17,43,37.40
2021,06,26,17,44,37.40
2021,06,26,17,45,37.40
2021,06,26,17,46,37.40
2021,06,26,17,47,37.40
2021,06,26,17,48,37.40
2021,06,26,17,49,37.40
2021,06,26,17,50,37.40
2021,06,26,17,51,37.40
2021,06,26,17,52,37.40
2021,06,26,17,53,37.40
2021,06,26,17,54,37.40
2021,06,26,17,55,37.40
2021,06,26,17,56,37.50
2021,06,26,17,57,37.40
2021,06,26,17,58,37.40
2021,06,26,17,59,37.40
2021,06,26,18,00,37.40
2021,06,26,18,01,37.40
2021,06,26,18,02,37.40
2021,06,26,18,03,37.40
2021,06,26,18,04,37.40
2021,06,26,18,05,37.40
2021,06,26,18,06,37.40
2021,06,26,18,07,37.40
2021,06,26,18,08,37.50
2021,06,26,18,09,37.50
2021,06,26,18,10,37.50
2021,06,26,18,11,37.50
2021,06,26,18,12,37.50
2021,06,26,18,13,37.50
2021,06,26,18,14,37.40
2021,06,26,18,15,37.40
2021,06,26,18,16,37.40
2021,06,26,18,17,37.40
2021,06,26,18,18,37.40
2021,06,26,18,19,37.40
2021,06,26,18,20,37.40
2021,06,26,18,21,37.30
2021,06,26,18,22,37.30
2021,06,26,18,23,37.30
2021,06,26,18,24,37.30
2021,06,26,18,25,37.30
2021,06,26,18,26,37.30
2021,06,26,18,27,37.30
2021,06,26,18,28,37.30
2021,06,26,18,29,37.30
2021,06,26,18,30,37.30
2021,06,26,18,31,37.30
2021,06,26,18,32,37.30
2021,06,26,18,33,37.30
2021,06,26,18,34,37.30
2021,06,26,18,35,37.30
2021,06,26,18,36,37.30
2021,06,26,18,37,37.40
2021,06,26,18,38,37.40
2021,06,26,18,39,37.40
2021,06,26,18,40,37.30
2021,06,26,18,41,37.30
2021,06,26,18,42,37.30
2021,06,26,18,43,37.30
2021,06,26,18,44,37.30
2021,06,26,18,45,37.30
2021,06,26,18,46,37.30
2021,06,26,18,47,37.30
2021,06,26,18,48,37.30
2021,06,26,18,49,37.30
2021,06,26,18,50,37.30
2021,06,26,18,51,37.30
2021,06,26,18,52,37.30
2021,06,26,18,53,37.30
2021,06,26,18,54,37.20
2021,06,26,18,55,37.20
2021,06,26,18,56,37.20
2021,06,26,18,57,37.20
2021,06,26,18,58,37.20
2021,06,26,18,59,37.20
2021,06,26,19,00,37.20
2021,06,26,19,01,37.20
2021,06,26,19,02,37.20
2021,06,26,19,03,37.20
2021,06,26,19,04,37.20
2021,06,26,19,05,37.20
2021,06,26,19,06,37.20
2021,06,26,19,07,37.20
2021,06,26,19,08,37.20
2021,06,26,19,09,37.30
2021,06,26,19,10,37.20
2021,06,26,19,11,37.20
2021,06,26,19,12,37.20
2021,06,26,19,13,37.20
2021,06,26,19,14,37.20
2021,06,26,19,15,37.10
2021,06,26,19,16,37.10
2021,06,26,19,17,37.10
2021,06,26,19,18,37.10
2021,06,26,19,19,37.10
2021,06,26,19,20,37.10
2021,06,26,19,21,37.10
2021,06,26,19,22,37.10
2021,06,26,19,23,37.10
2021,06,26,19,24,37.10
2021,06,26,19,25,37.10
2021,06,26,19,26,37.10
2021,06,26,19,27,37.10
2021,06,26,19,28,37.10
2021,06,26,19,29,37.10
2021,06,26,19,30,37.10
2021,06,26,19,31,37.10
2021,06,26,19,32,37.10
2021,06,26,19,33,37.10
2021,06,26,19,34,37.10
2021,06,26,19,35,37.10
2021,06,26,19,36,37.10
2021,06,26,19,37,37.10
2021,06,26,19,38,37.00
2021,06,26,19,39,37.00
2021,06,26,19,40,37.00
2021,06,26,19,41,36.90
2021,06,26,19,42,36.90
2021,06,26,19,43,36.90
2021,06,26,19,44,36.90
2021,06,26,19,45,36.90
2021,06,26,19,46,36.90
2021,06,26,19,47,36.90
2021,06,26,19,48,36.90
2021,06,26,19,49,36.90
2021,06,26,19,50,36.90
2021,06,26,19,51,36.90
2021,06,26,19,52,36.90
2021,06,26,19,53,36.90
2021,06,26,19,54,36.90
2021,06,26,19,55,36.90
2021,06,26,19,56,36.80
2021,06,26,19,57,36.90
2021,06,26,19,58,36.90
2021,06,26,19,59,36.90
2021,06,26,20,00,36.80
2021,06,26,20,01,36.80
2021,06,26,20,02,36.80
2021,06,26,20,03,36.80
2021,06,26,20,04,36.80
2021,06,26,20,05,36.80
2021,06,26,20,06,36.80
2021,06,26,20,07,36.80
2021,06,26,20,08,36.80
2021,06,26,20,09,36.90
2021,06,26,20,10,36.90
2021,06,26,20,11,36.90
2021,06,26,20,12,36.90
2021,06,26,20,13,36.90
2021,06,26,20,14,36.90
2021,06,26,20,15,36.70
2021,06,26,20,16,36.50
2021,06,26,20,17,36.20
2021,06,26,20,18,35.90
2021,06,26,20,19,35.60
2021,06,26,20,20,35.30
2021,06,26,20,21,35.10
2021,06,26,20,22,34.90
2021,06,26,20,23,34.80
2021,06,26,20,24,34.60
2021,06,26,20,25,34.40
2021,06,26,20,26,34.20
2021,06,26,20,27,34.00
2021,06,26,20,28,33.90
2021,06,26,20,29,33.80
2021,06,26,20,30,33.70
2021,06,26,20,31,33.60
2021,06,26,20,32,33.50
2021,06,26,20,33,33.30
2021,06,26,20,34,33.20
2021,06,26,20,35,33.10
2021,06,26,20,36,33.00
2021,06,26,20,37,32.90
2021,06,26,20,38,32.80
2021,06,26,20,39,32.70
2021,06,26,20,40,32.50
2021,06,26,20,41,32.40
2021,06,26,20,42,32.40
2021,06,26,20,43,32.40
2021,06,26,20,44,32.30
2021,06,26,20,45,32.30
2021,06,26,20,46,32.30
2021,06,26,20,47,32.20
2021,06,26,20,48,32.20
2021,06,26,20,49,32.20
2021,06,26,20,50,32.20
2021,06,26,20,51,32.10
2021,06,26,20,52,32.00
2021,06,26,20,53,31.90
2021,06,26,20,54,31.90
2021,06,26,20,55,31.90
2021,06,26,20,56,31.90
2021,06,26,20,57,31.80
2021,06,26,20,58,31.80
2021,06,26,20,59,31.70
2021,06,26,21,00,31.60
2021,06,26,21,01,31.60
2021,06,26,21,02,31.50
2021,06,26,21,03,31.50
2021,06,26,21,04,31.40
2021,06,26,21,05,31.40
2021,06,26,21,06,31.30
2021,06,26,21,07,31.30
2021,06,26,21,08,31.20
2021,06,26,21,09,31.20
2021,06,26,21,10,31.10
2021,06,26,21,11,31.10
2021,06,26,21,12,31.00
2021,06,26,21,13,31.00
2021,06,26,21,14,30.90
2021,06,26,21,15,30.90
2021,06,26,21,16,30.80
2021,06,26,21,17,30.80
2021,06,26,21,18,30.70
2021,06,26,21,19,30.70
2021,06,26,21,20,30.70
2021,06,26,21,21,30.60
2021,06,26,21,22,30.50
2021,06,26,21,23,30.50
2021,06,26,21,24,30.40
2021,06,26,21,25,30.40
2021,06,26,21,26,30.30
2021,06,26,21,27,30.30
2021,06,26,21,28,30.20
2021,06,26,21,29,30.20
2021,06,26,21,30,30.10
2021,06,26,21,31,30.00
2021,06,26,21,32,30.00
2021,06,26,21,33,29.90
2021,06,26,21,34,29.80
2021,06,26,21,35,29.70
2021,06,26,21,36,29.60
2021,06,26,21,37,29.50
2021,06,26,21,38,29.50
2021,06,26,21,39,29.40
2021,06,26,21,40,29.30
2021,06,26,21,41,29.30
2021,06,26,21,42,29.30
2021,06,26,21,43,29.30
2021,06,26,21,44,29.30
2021,06,26,21,45,29.30
2021,06,26,21,46,29.10
2021,06,26,21,47,29.00
2021,06,26,21,48,28.90
2021,06,26,21,49,29.00
2021,06,26,21,50,29.00
2021,06,26,21,51,29.10
2021,06,26,21,52,29.20
2021,06,26,21,53,29.30
2021,06,26,21,54,29.30
2021,06,26,21,55,29.30
2021,06,26,21,56,29.40
2021,06,26,21,57,29.40
2021,06,26,21,58,29.40
2021,06,26,21,59,29.40
2021,06,26,22,00,29.40
2021,06,26,22,01,29.40
2021,06,26,22,02,29.40
2021,06,26,22,03,29.40
2021,06,26,22,04,29.40
2021,06,26,22,05,29.40
2021,06,26,22,06,29.40
2021,06,26,22,07,29.40
2021,06,26,22,08,29.40
2021,06,26,22,09,29.40
2021,06,26,22,10,29.40
2021,06,26,22,11,29.40
2021,06,26,22,12,29.40
2021,06,26,22,13,29.40
2021,06,26,22,14,29.40
2021,06,26,22,15,29.30
2021,06,26,22,16,29.30
2021,06,26,22,17,29.30
2021,06,26,22,18,29.30
2021,06,26,22,19,29.30
2021,06,26,22,20,29.30
2021,06,26,22,21,29.30
2021,06,26,22,22,29.30
2021,06,26,22,23,29.30
2021,06,26,22,24,29.20
2021,06,26,22,25,29.20
2021,06,26,22,26,29.20
2021,06,26,22,27,29.20
2021,06,26,22,28,29.20
2021,06,26,22,29,29.10
2021,06,26,22,30,29.10
2021,06,26,22,31,29.00
2021,06,26,22,32,28.90
2021,06,26,22,33,28.80
2021,06,26,22,34,28.60
2021,06,26,22,35,28.60
2021,06,26,22,36,28.40
2021,06,26,22,37,28.30
2021,06,26,22,38,28.20
2021,06,26,22,39,28.10
2021,06,26,22,40,27.90
2021,06,26,22,41,27.80
2021,06,26,22,42,27.70
2021,06,26,22,43,27.60
2021,06,26,22,44,27.50
2021,06,26,22,45,27.40
2021,06,26,22,46,27.30
2021,06,26,22,47,27.20
2021,06,26,22,48,27.10
2021,06,26,22,49,27.10
2021,06,26,22,50,27.00
2021,06,26,22,51,26.90
2021,06,26,22,52,26.90
2021,06,26,22,53,26.80
2021,06,26,22,54,26.80
2021,06,26,22,55,26.80
2021,06,26,22,56,26.80
2021,06,26,22,57,26.70
2021,06,26,22,58,26.70
2021,06,26,22,59,26.70
2021,06,26,23,00,26.60
2021,06,26,23,01,26.60
2021,06,26,23,02,26.60
2021,06,26,23,03,26.60
2021,06,26,23,04,26.50
2021,06,26,23,05,26.50
2021,06,26,23,06,26.40
2021,06,26,23,07,26.40
2021,06,26,23,08,26.30
2021,06,26,23,09,26.30
2021,06,26,23,10,26.30
2021,06,26,23,11,26.20
2021,06,26,23,12,26.20
2021,06,26,23,13,26.20
2021,06,26,23,14,26.20
2021,06,26,23,15,26.10
2021,06,26,23,16,26.10
2021,06,26,23,17,26.10
2021,06,26,23,18,26.00
2021,06,26,23,19,26.00
2021,06,26,23,20,26.00
2021,06,26,23,21,25.90
2021,06,26,23,22,25.90
2021,06,26,23,23,25.90
2021,06,26,23,24,25.80
2021,06,26,23,25,25.80
2021,06,26,23,26,25.70
2021,06,26,23,27,25.60
2021,06,26,23,28,25.60
2021,06,26,23,29,25.50
2021,06,26,23,30,25.50
2021,06,26,23,31,25.50
2021,06,26,23,32,25.40
2021,06,26,23,33,25.40
2021,06,26,23,34,25.40
2021,06,26,23,35,25.30
2021,06,26,23,36,25.30
2021,06,26,23,37,25.30
2021,06,26,23,38,25.20
2021,06,26,23,39,25.20
2021,06,26,23,40,25.20
2021,06,26,23,41,25.10
2021,06,26,23,42,25.10
2021,06,26,23,43,25.00
2021,06,26,23,44,25.00
2021,06,26,23,45,25.00
2021,06,26,23,46,24.90
2021,06,26,23,47,24.90
2021,06,26,23,48,24.90
2021,06,26,23,49,24.80
2021,06,26,23,50,24.80
2021,06,26,23,51,24.80
2021,06,26,23,52,24.80
2021,06,26,23,53,24.80
2021,06,26,23,54,24.70
2021,06,26,23,55,24.70
2021,06,26,23,56,24.70
2021,06,26,23,57,24.60
2021,06,26,23,58,24.60
2021,06,26,23,59,24.60
